User: anonymous   Login
Location: Unspecified
(0.0000°N, 0.0000°E)
Time: 23:42:15
(UTC+00:00)
Language:

WGS F2 (USA 204) - Orbit

View from above orbital plane
View from above orbital plane
View from above satellite
View from above satellite

Ground track
Ground track

The orbit data is extracted from the following two-line orbital elements,

1 34713U 09017A   15170.93486164 0.00000000  00000-0  00000-0 0    03
2 34713   0.0150 304.5517 0002000 215.8957 144.0918  1.00270000    07
Epoch (UTC): 19 June 2015 22:26:12
Eccentricity: 0.0002000
inclination: 0.0150°
perigee height: 35778 km
apogee height: 35795 km
right ascension of ascending node: 304.5517°
argument of perigee: 215.8957°
revolutions per day: 1.00270000
mean anomaly at epoch: 144.0918°
orbit number at epoch: 0

The dashed part of the orbit path shows where the satellite is in the earth's shadow,  

DLR